Fort Indiantown Gap, PA

12:07 AM EST on November 20, 2019 (GMT -0500)
Muir Army Air Field

Weather History for KMUI - August, 2019

Change the Weather History Date:

Monday, August 19, 2019

  Actual Average Record
Temperature  
Mean Temperature 76 °F -  
Max Temperature 89 °F 81 °F 91 °F (2002)
Min Temperature 64 °F 65 °F 52 °F (2012)
Cooling Degree Days 12    
Growing Degree Days 26 (Base 50)    
Moisture  
Dew Point 67 °F    
Average Humidity 81    
Maximum Humidity 100    
Minimum Humidity 45    
Precipitation  
Precipitation 0.00 in - - ()
Sea Level Pressure  
Sea Level Pressure 30.00 in    
Wind  
Wind Speed 1 mph (NW)    
Max Wind Speed 6 mph    
Max Gust Speed -    
Visibility 8 miles    
Events Rain    
Averages and records for this station are not official NWS values.
T = Trace of Precipitation, MM = Missing Value Source: NWS Daily Summary

Daily Weather History Graph

Daily Weather History Graph

Search for Another Location

Airport or City:

Astronomy

Aug. 19, 2019 Rise Set
Actual Time 6:20 AM EDT 7:58 PM EDT
Civil Twilight 5:51 AM EDT 8:27 PM EDT
Nautical Twilight 5:16 AM EDT 9:02 PM EDT
Astronomical Twilight 4:39 AM EDT 9:39 PM EDT
Moon 10:17 PM EDT (8/19) 10:00 AM EDT (8/19)
Length of Visible Light 14h 35m
Length of Day
13h 37m
Waning Gibbous, 85% of the Moon is Illuminated
Aug 19
Waning Gibbous
Aug 23
Last Quarter
Aug 30
New
Sep 5
First Quarter
Sep 14
Full

Hourly Weather History & Observations

Time (EDT) Temp. Heat Index Dew Point Humidity Pressure Visibility Wind Dir Wind Speed Gust Speed Precip Events Conditions
12:56 AM 69.3 °F - 67.5 °F 94% 29.98 in 10.0 mi Calm Calm - N/A   Scattered Clouds
1:24 AM 68.0 °F - 66.2 °F 94% 29.97 in 10.0 mi Calm Calm - N/A Rain Light Rain
1:26 AM 68.0 °F - 66.2 °F 94% 29.97 in 10.0 mi Calm Calm - N/A   Partly Cloudy
1:56 AM 67.3 °F - 66.0 °F 96% 29.97 in 10.0 mi Calm Calm - 0.00 in   Clear
2:56 AM 66.7 °F - 65.8 °F 97% 29.98 in 10.0 mi Calm Calm - N/A   Unknown
3:56 AM 66.0 °F - 65.1 °F 97% 29.98 in 6.0 mi Calm Calm - N/A   Clear
4:56 AM 66.0 °F - 65.5 °F 98% 29.99 in 10.0 mi Calm Calm - N/A   Clear
5:56 AM 65.1 °F - 64.6 °F 98% 30.00 in 2.8 mi Calm Calm - N/A   Clear
6:04 AM 64.4 °F - 64.4 °F 100% 30.00 in 3.0 mi Calm Calm - N/A   Clear
6:28 AM 64.4 °F - 64.4 °F 100% 30.00 in 1.1 mi Calm Calm - N/A   Clear
6:30 AM 64.4 °F - 64.4 °F 100% 30.01 in 0.6 mi Calm Calm - N/A   Clear
6:38 AM 64.4 °F - 64.4 °F 100% 30.00 in 6.0 mi Calm Calm - N/A   Clear
6:56 AM 65.5 °F - 64.9 °F 98% 30.03 in 6.0 mi NW 5.8 mph - N/A   Scattered Clouds
7:56 AM 70.0 °F - 68.7 °F 96% 30.02 in 10.0 mi Calm Calm - N/A   Scattered Clouds
8:56 AM 73.2 °F - 68.4 °F 85% 30.01 in 10.0 mi Calm Calm - N/A   Mostly Cloudy
9:56 AM 77.4 °F - 69.1 °F 76% 30.01 in 10.0 mi Calm Calm - N/A   Mostly Cloudy
10:56 AM 82.0 °F 85.1 °F 68.5 °F 63% 30.02 in 10.0 mi South 5.8 mph - N/A   Scattered Clouds
11:56 AM 82.6 °F 86.6 °F 70.0 °F 66% 30.02 in 10.0 mi West 4.6 mph - N/A   Mostly Cloudy
12:56 PM 87.1 °F 90.9 °F 68.4 °F 54% 30.02 in 10.0 mi North 4.6 mph - N/A   Mostly Cloudy
1:56 PM 87.1 °F 89.9 °F 66.7 °F 51% 30.02 in 10.0 mi North 3.5 mph - N/A   Mostly Cloudy
2:56 PM 88.3 °F 90.5 °F 66.0 °F 47% 30.00 in 10.0 mi NW 4.6 mph - N/A   Mostly Cloudy
3:56 PM 89.1 °F 91.0 °F 64.9 °F 45% 30.00 in 10.0 mi WNW 4.6 mph - N/A   Mostly Cloudy
4:56 PM 88.7 °F 91.1 °F 65.8 °F 47% 29.99 in 10.0 mi NNW 5.8 mph - N/A   Mostly Cloudy
5:56 PM 87.4 °F 88.8 °F 64.6 °F 46% 29.98 in 10.0 mi West 3.5 mph - N/A   Mostly Cloudy
6:56 PM 85.1 °F 87.7 °F 66.6 °F 54% 29.99 in 10.0 mi Calm Calm - N/A   Mostly Cloudy
7:56 PM 78.8 °F - 69.4 °F 73% 30.01 in 10.0 mi Calm Calm - N/A   Mostly Cloudy
8:56 PM 74.5 °F - 69.3 °F 84% 30.03 in 10.0 mi Calm Calm - N/A   Mostly Cloudy
9:56 PM 72.3 °F - 68.5 °F 88% 30.04 in 10.0 mi Calm Calm - N/A   Clear
10:56 PM 72.5 °F - 68.4 °F 87% 30.05 in 10.0 mi Calm Calm - N/A   Clear
11:56 PM 70.9 °F - 68.4 °F 92% 30.04 in 10.0 mi Calm Calm - N/A   Clear